Вернуться в каталог

STARLINK-37759

АктивенСвязьSSO
NORAD 69223·PAYLOAD·🇺🇸 United States

Запущен May 26, 2026 с Vandenberg Space Force Base

Loading…

Ближайшие Пролёты (ближайшие 24 часа)

TLE

СвежийSource: CelesTrak SupGP

Эпоха: Sep 14, 2026, 15:39 UTC

1 69223C 26115N   26257.65256944 -.00050635  00000+0 -15719-2 0  2572
2 69223  97.2838 273.8363 0001334  98.8262 298.4823 15.33462964    19

Отслеживайте STARLINK-37759 в реальном времени с AllMySat

Download on the App Store